INMARSAT 5-F1

Last updated on Sun Dec 07 2025 00:02:48 GMT+0000 (Coordinated Universal Time)

1 39476U 13073A 25340.43914979 .00000036 00000+0 00000+0 0 9990 2 39476 0.0162 350.6847 0000844 227.1225 78.3960 1.00265134 43642
UTC large
Height (km)
Speed (km/s)
/
Latitude / Longitude
Inclination (degrees)
Orbital Period (minutes)
Azimuth
Elevation
Range (km)
Doppler Factor

Next 0 passes for location: London (51.5072 / 0.1276)

Sorry there are no passes over London.